Time,TemperatureF,DewpointF,PressureIn,WindDirection,WindDirectionDegrees,WindSpeedMPH,WindSpeedGustMPH,Humidity,HourlyPrecipIn,Conditions,Clouds,dailyrainin,SoftwareType,DateUTC
2013-07-18 00:02:00,79.0,72.0,-100.00,WNW,295,0.0,0.0,80,0.00,,,-99.99,,2013-07-18 05:02:00,
2013-07-18 00:32:00,78.0,72.0,-100.00,WNW,290,0.0,0.0,84,0.00,,,-99.99,,2013-07-18 05:32:00,
2013-07-18 00:42:00,78.0,72.0,-100.00,WNW,290,0.0,0.0,84,0.00,,,-99.99,,2013-07-18 05:42:00,
2013-07-18 00:52:00,78.0,72.0,-100.00,WNW,290,0.0,0.0,84,0.00,,,-99.99,,2013-07-18 05:52:00,
2013-07-18 01:01:00,78.0,72.0,-100.00,WNW,290,0.0,0.0,84,0.00,,,-99.99,,2013-07-18 06:01:00,
2013-07-18 01:10:00,77.0,72.0,-100.00,West,280,0.0,0.0,85,0.00,,,-99.99,,2013-07-18 06:10:00,
2013-07-18 01:32:00,77.0,72.0,-100.00,West,280,0.0,0.0,85,0.00,,,-99.99,,2013-07-18 06:32:00,
2013-07-18 01:43:00,77.0,72.0,-100.00,West,280,0.0,0.0,85,0.00,,,-99.99,,2013-07-18 06:43:00,
2013-07-18 01:52:00,77.0,72.0,-100.00,West,280,0.0,0.0,85,0.00,,,-99.99,,2013-07-18 06:52:00,
2013-07-18 02:01:00,77.0,72.0,-100.00,West,280,0.0,0.0,85,0.00,,,-99.99,,2013-07-18 07:01:00,
2013-07-18 02:11:00,76.0,72.0,-100.00,WSW,240,0.0,0.0,87,0.00,,,-99.99,,2013-07-18 07:11:00,
2013-07-18 02:32:00,76.0,72.0,-100.00,WSW,240,0.0,0.0,87,0.00,,,-99.99,,2013-07-18 07:32:00,
2013-07-18 02:42:00,76.0,72.0,-100.00,WSW,240,0.0,0.0,87,0.00,,,-99.99,,2013-07-18 07:42:00,
2013-07-18 02:52:00,76.0,72.0,-100.00,WSW,240,0.0,0.0,87,0.00,,,-99.99,,2013-07-18 07:52:00,
2013-07-18 03:01:00,76.0,72.0,-100.00,WSW,240,0.0,0.0,87,0.00,,,-99.99,,2013-07-18 08:01:00,
2013-07-18 03:32:00,77.0,72.0,-100.00,NW,315,0.0,0.0,84,0.00,,,-99.99,,2013-07-18 08:32:00,
2013-07-18 03:42:00,77.0,72.0,-100.00,NW,315,0.0,0.0,84,0.00,,,-99.99,,2013-07-18 08:42:00,
2013-07-18 03:52:00,77.0,72.0,-100.00,NW,315,0.0,0.0,84,0.00,,,-99.99,,2013-07-18 08:52:00,
2013-07-18 04:01:00,77.0,72.0,-100.00,NW,315,0.0,0.0,84,0.00,,,-99.99,,2013-07-18 09:01:00,
2013-07-18 04:32:00,77.0,72.0,-100.00,West,260,0.0,0.0,84,0.00,,,-99.99,,2013-07-18 09:32:00,
2013-07-18 04:42:00,77.0,72.0,-100.00,West,260,0.0,0.0,84,0.00,,,-99.99,,2013-07-18 09:42:00,
2013-07-18 04:51:00,77.0,72.0,-100.00,West,260,0.0,0.0,84,0.00,,,-99.99,,2013-07-18 09:51:00,
2013-07-18 05:01:00,77.0,72.0,-100.00,West,260,0.0,0.0,84,0.00,,,-99.99,,2013-07-18 10:01:00,
2013-07-18 05:32:00,77.0,72.0,-100.00,WNW,290,0.0,0.0,83,0.00,,,-99.99,,2013-07-18 10:32:00,
2013-07-18 05:43:00,77.0,72.0,-100.00,WNW,290,0.0,0.0,83,0.00,,,-99.99,,2013-07-18 10:43:00,
2013-07-18 05:52:00,77.0,72.0,-100.00,WNW,290,0.0,0.0,83,0.00,,,-99.99,,2013-07-18 10:52:00,
2013-07-18 06:01:00,77.0,72.0,-100.00,WNW,290,0.0,0.0,83,0.00,,,-99.99,,2013-07-18 11:01:00,
2013-07-18 06:32:00,76.0,72.0,-100.00,NW,310,0.0,0.0,88,0.00,,,-99.99,,2013-07-18 11:32:00,
2013-07-18 06:43:00,76.0,72.0,-100.00,NW,310,0.0,0.0,88,0.00,,,-99.99,,2013-07-18 11:43:00,
2013-07-18 06:52:00,76.0,72.0,-100.00,NW,310,0.0,0.0,88,0.00,,,-99.99,,2013-07-18 11:52:00,
2013-07-18 07:02:00,76.0,72.0,-100.00,NW,310,0.0,0.0,88,0.00,,,-99.99,,2013-07-18 12:02:00,
2013-07-18 07:42:00,82.0,72.0,-100.00,WNW,290,0.0,0.0,72,0.00,,,-99.99,,2013-07-18 12:42:00,
2013-07-18 07:52:00,82.0,72.0,-100.00,WNW,290,0.0,0.0,72,0.00,,,-99.99,,2013-07-18 12:52:00,
2013-07-18 08:01:00,82.0,72.0,-100.00,WNW,290,0.0,0.0,72,0.00,,,-99.99,,2013-07-18 13:01:00,
2013-07-18 08:33:00,85.0,72.0,-100.00,West,270,0.0,0.0,67,0.00,,,-99.99,,2013-07-18 13:33:00,
2013-07-18 08:43:00,85.0,72.0,-100.00,West,270,0.0,0.0,67,0.00,,,-99.99,,2013-07-18 13:43:00,
2013-07-18 08:53:00,85.0,72.0,-100.00,West,270,0.0,0.0,67,0.00,,,-99.99,,2013-07-18 13:53:00,
2013-07-18 09:02:00,85.0,72.0,-100.00,West,270,0.0,0.0,67,0.00,,,-99.99,,2013-07-18 14:02:00,
2013-07-18 09:10:00,87.0,73.0,-100.00,NW,315,0.0,0.0,64,0.00,,,-99.99,,2013-07-18 14:10:00,
2013-07-18 09:33:00,87.0,73.0,-100.00,NW,315,0.0,0.0,64,0.00,,,-99.99,,2013-07-18 14:33:00,
2013-07-18 09:43:00,87.0,73.0,-100.00,NW,315,0.0,0.0,64,0.00,,,-99.99,,2013-07-18 14:43:00,
2013-07-18 09:53:00,87.0,73.0,-100.00,NW,315,0.0,0.0,64,0.00,,,-99.99,,2013-07-18 14:53:00,
2013-07-18 10:01:00,87.0,73.0,-100.00,NW,315,0.0,0.0,64,0.00,,,-99.99,,2013-07-18 15:01:00,
2013-07-18 10:32:00,90.0,74.0,-100.00,North,0,0.0,0.0,61,0.00,,,-99.99,,2013-07-18 15:32:00,
2013-07-18 10:43:00,90.0,74.0,-100.00,North,0,0.0,0.0,61,0.00,,,-99.99,,2013-07-18 15:43:00,
2013-07-18 10:53:00,90.0,74.0,-100.00,North,0,0.0,0.0,61,0.00,,,-99.99,,2013-07-18 15:53:00,
2013-07-18 11:01:00,90.0,74.0,-100.00,North,0,0.0,0.0,61,0.00,,,-99.99,,2013-07-18 16:01:00,
2013-07-18 11:10:00,90.0,72.0,-100.00,WSW,250,0.0,0.0,55,0.00,,,-99.99,,2013-07-18 16:10:00,
2013-07-18 11:32:00,90.0,72.0,-100.00,WSW,250,0.0,0.0,55,0.00,,,-99.99,,2013-07-18 16:32:00,
2013-07-18 11:42:00,90.0,72.0,-100.00,WSW,250,0.0,0.0,55,0.00,,,-99.99,,2013-07-18 16:42:00,
2013-07-18 11:52:00,90.0,72.0,-100.00,WSW,250,0.0,0.0,55,0.00,,,-99.99,,2013-07-18 16:52:00,
2013-07-18 12:02:00,90.0,72.0,-100.00,WSW,250,0.0,0.0,55,0.00,,,-99.99,,2013-07-18 17:02:00,
2013-07-18 12:33:00,93.0,74.0,-100.00,SW,220,0.0,0.0,53,0.00,,,-99.99,,2013-07-18 17:33:00,
2013-07-18 12:43:00,93.0,74.0,-100.00,SW,220,0.0,0.0,53,0.00,,,-99.99,,2013-07-18 17:43:00,
2013-07-18 12:52:00,93.0,74.0,-100.00,SW,220,0.0,0.0,53,0.00,,,-99.99,,2013-07-18 17:52:00,
2013-07-18 13:01:00,93.0,74.0,-100.00,SW,220,0.0,0.0,53,0.00,,,-99.99,,2013-07-18 18:01:00,
2013-07-18 13:33:00,92.0,72.0,-100.00,SW,225,0.0,0.0,51,0.00,,,-99.99,,2013-07-18 18:33:00,
2013-07-18 13:43:00,92.0,72.0,-100.00,SW,225,0.0,0.0,51,0.00,,,-99.99,,2013-07-18 18:43:00,
2013-07-18 13:52:00,92.0,72.0,-100.00,SW,225,0.0,0.0,51,0.00,,,-99.99,,2013-07-18 18:52:00,
2013-07-18 14:02:00,92.0,72.0,-100.00,SW,225,0.0,0.0,51,0.00,,,-99.99,,2013-07-18 19:02:00,
2013-07-18 14:10:00,92.0,72.0,-100.00,West,260,0.0,0.0,52,0.00,,,-99.99,,2013-07-18 19:10:00,
2013-07-18 14:32:00,92.0,72.0,-100.00,West,260,0.0,0.0,52,0.00,,,-99.99,,2013-07-18 19:32:00,
2013-07-18 14:43:00,92.0,72.0,-100.00,West,260,0.0,0.0,52,0.00,,,-99.99,,2013-07-18 19:43:00,
2013-07-18 14:53:00,92.0,72.0,-100.00,West,260,0.0,0.0,52,0.00,,,-99.99,,2013-07-18 19:53:00,
2013-07-18 15:02:00,92.0,72.0,-100.00,West,260,0.0,0.0,52,0.00,,,-99.99,,2013-07-18 20:02:00,
2013-07-18 15:32:00,94.0,72.0,-100.00,SW,230,0.0,0.0,49,0.00,,,-99.99,,2013-07-18 20:32:00,
2013-07-18 15:43:00,94.0,72.0,-100.00,SW,230,0.0,0.0,49,0.00,,,-99.99,,2013-07-18 20:43:00,
2013-07-18 15:52:00,94.0,72.0,-100.00,SW,230,0.0,0.0,49,0.00,,,-99.99,,2013-07-18 20:52:00,
2013-07-18 16:01:00,94.0,72.0,-100.00,SW,230,0.0,0.0,49,0.00,,,-99.99,,2013-07-18 21:01:00,
2013-07-18 16:11:00,91.0,71.0,-100.00,SW,215,0.0,0.0,52,0.00,,,-99.99,,2013-07-18 21:11:00,
2013-07-18 16:32:00,91.0,71.0,-100.00,SW,215,0.0,0.0,52,0.00,,,-99.99,,2013-07-18 21:32:00,
2013-07-18 16:43:00,91.0,71.0,-100.00,SW,215,0.0,0.0,52,0.00,,,-99.99,,2013-07-18 21:43:00,
2013-07-18 16:52:00,91.0,71.0,-100.00,SW,215,0.0,0.0,52,0.00,,,-99.99,,2013-07-18 21:52:00,
2013-07-18 17:01:00,91.0,71.0,-100.00,SW,215,0.0,0.0,52,0.00,,,-99.99,,2013-07-18 22:01:00,
2013-07-18 17:10:00,88.0,70.0,-100.00,WSW,240,0.0,0.0,55,0.00,,,-99.99,,2013-07-18 22:10:00,
2013-07-18 17:32:00,88.0,70.0,-100.00,WSW,240,0.0,0.0,55,0.00,,,-99.99,,2013-07-18 22:32:00,
2013-07-18 17:43:00,88.0,70.0,-100.00,WSW,240,0.0,0.0,55,0.00,,,-99.99,,2013-07-18 22:43:00,
2013-07-18 17:53:00,88.0,70.0,-100.00,WSW,240,0.0,0.0,55,0.00,,,-99.99,,2013-07-18 22:53:00,
2013-07-18 18:02:00,88.0,70.0,-100.00,WSW,240,0.0,0.0,55,0.00,,,-99.99,,2013-07-18 23:02:00,
2013-07-18 18:10:00,87.0,70.0,-100.00,West,265,0.0,0.0,56,0.00,,,-99.99,,2013-07-18 23:10:00,
2013-07-18 18:32:00,87.0,70.0,-100.00,West,265,0.0,0.0,56,0.00,,,-99.99,,2013-07-18 23:32:00,
2013-07-18 18:42:00,87.0,70.0,-100.00,West,265,0.0,0.0,56,0.00,,,-99.99,,2013-07-18 23:42:00,
2013-07-18 18:52:00,87.0,70.0,-100.00,West,265,0.0,0.0,56,0.00,,,-99.99,,2013-07-18 23:52:00,
2013-07-18 19:01:00,87.0,70.0,-100.00,West,265,0.0,0.0,56,0.00,,,-99.99,,2013-07-19 00:01:00,
2013-07-18 19:11:00,86.0,69.0,-100.00,West,260,0.0,0.0,57,0.00,,,-99.99,,2013-07-19 00:11:00,
2013-07-18 19:32:00,86.0,69.0,-100.00,West,260,0.0,0.0,57,0.00,,,-99.99,,2013-07-19 00:32:00,
2013-07-18 19:43:00,86.0,69.0,-100.00,West,260,0.0,0.0,57,0.00,,,-99.99,,2013-07-19 00:43:00,
2013-07-18 19:52:00,86.0,69.0,-100.00,West,260,0.0,0.0,57,0.00,,,-99.99,,2013-07-19 00:52:00,
2013-07-18 20:01:00,86.0,69.0,-100.00,West,260,0.0,0.0,57,0.00,,,-99.99,,2013-07-19 01:01:00,
2013-07-18 20:32:00,84.0,69.0,-100.00,WNW,300,0.0,0.0,61,0.00,,,-99.99,,2013-07-19 01:32:00,
2013-07-18 20:42:00,84.0,69.0,-100.00,WNW,300,0.0,0.0,61,0.00,,,-99.99,,2013-07-19 01:42:00,
2013-07-18 20:52:00,84.0,69.0,-100.00,WNW,300,0.0,0.0,61,0.00,,,-99.99,,2013-07-19 01:52:00,
2013-07-18 21:02:00,84.0,69.0,-100.00,WNW,300,0.0,0.0,61,0.00,,,-99.99,,2013-07-19 02:02:00,
2013-07-18 21:32:00,83.0,70.0,-100.00,SW,225,0.0,0.0,66,0.00,,,-99.99,,2013-07-19 02:32:00,
2013-07-18 21:43:00,83.0,70.0,-100.00,SW,225,0.0,0.0,66,0.00,,,-99.99,,2013-07-19 02:43:00,
2013-07-18 21:52:00,83.0,70.0,-100.00,SW,225,0.0,0.0,66,0.00,,,-99.99,,2013-07-19 02:52:00,
2013-07-18 22:01:00,83.0,70.0,-100.00,SW,225,0.0,0.0,66,0.00,,,-99.99,,2013-07-19 03:01:00,
2013-07-18 22:10:00,82.0,71.0,-100.00,WSW,250,0.0,0.0,69,0.00,,,-99.99,,2013-07-19 03:10:00,
2013-07-18 22:11:00,83.0,70.0,-100.00,SW,225,0.0,0.0,66,0.00,,,-99.99,,2013-07-19 03:11:00,
2013-07-18 22:32:00,82.0,71.0,-100.00,WSW,250,0.0,0.0,69,0.00,,,-99.99,,2013-07-19 03:32:00,
2013-07-18 22:43:00,82.0,71.0,-100.00,WSW,250,0.0,0.0,69,0.00,,,-99.99,,2013-07-19 03:43:00,
2013-07-18 22:52:00,82.0,71.0,-100.00,WSW,250,0.0,0.0,69,0.00,,,-99.99,,2013-07-19 03:52:00,
2013-07-18 23:02:00,82.0,71.0,-100.00,WSW,250,0.0,0.0,69,0.00,,,-99.99,,2013-07-19 04:02:00,
2013-07-18 23:33:00,82.0,70.0,-100.00,West,265,0.0,0.0,67,0.00,,,-99.99,,2013-07-19 04:33:00,
2013-07-18 23:44:00,82.0,70.0,-100.00,West,265,0.0,0.0,67,0.00,,,-99.99,,2013-07-19 04:44:00,
2013-07-18 23:52:00,82.0,70.0,-100.00,West,265,0.0,0.0,67,0.00,,,-99.99,,2013-07-19 04:52:00,